contact:dominique.lefevre@mio.osupytheas.fr, maurice.libes@osupytheas.fr, didier.mallarino@osupytheas.fr
Project:EMSO http://www.emso-fr.org/EMSO-France
Depth: 2436.0 m
Title:EMSO Ligure Ouest : Data MII capteur CSTAR
DateTime,Latitude,Longitude,Instrument_Serial,Reference_Counts,Signal_Counts,Corrected_Signal_raw_counts,Calculated_Beam_c_inverse_meters,Internal_thermistor_counts
DateTime,Latitude,Longitude,Instrument_Serial,Reference_Counts,Signal_Counts,Corrected_Signal_raw_counts,Calculated_Beam_c_inverse_meters,Internal_thermistor_counts
2022-03-05T00:02:14,42.805,6.029,CST-1368DR,4866,5882,12903,0.763,551
2022-03-05T00:05:16,42.805,6.029,CST-1368DR,4866,5884,12908,0.762,551
2022-03-05T00:08:17,42.805,6.029,CST-1368DR,4866,5884,12906,0.762,551
2022-03-05T00:11:19,42.805,6.029,CST-1368DR,4866,5882,12902,0.764,551
2022-03-05T00:14:20,42.805,6.029,CST-1368DR,4866,5878,12894,0.766,551
2022-03-05T00:17:22,42.805,6.029,CST-1368DR,4866,5883,12905,0.763,551
2022-03-05T00:20:23,42.805,6.029,CST-1368DR,4866,5879,12896,0.766,551
2022-03-05T00:23:25,42.805,6.029,CST-1368DR,4866,5879,12896,0.766,551
2022-03-05T00:26:27,42.805,6.029,CST-1368DR,4866,5877,12892,0.767,551
2022-03-05T00:29:28,42.805,6.029,CST-1368DR,4866,5884,12907,0.762,551
2022-03-05T00:32:30,42.805,6.029,CST-1368DR,4866,5885,12909,0.761,551
2022-03-05T00:35:31,42.805,6.029,CST-1368DR,4866,5882,12903,0.763,551
2022-03-05T00:38:33,42.805,6.029,CST-1368DR,4866,5886,12911,0.761,551
2022-03-05T00:41:34,42.805,6.029,CST-1368DR,4866,5884,12906,0.762,551
2022-03-05T00:44:36,42.805,6.029,CST-1368DR,4866,5887,12913,0.760,551
2022-03-05T00:47:38,42.805,6.029,CST-1368DR,4866,5884,12907,0.762,551
2022-03-05T00:50:39,42.805,6.029,CST-1368DR,4866,5883,12905,0.763,551
2022-03-05T00:53:41,42.805,6.029,CST-1368DR,4866,5883,12905,0.763,551
2022-03-05T00:56:42,42.805,6.029,CST-1368DR,4866,5881,12900,0.764,551
2022-03-05T00:59:44,42.805,6.029,CST-1368DR,4866,5882,12902,0.764,551
2022-03-05T01:02:46,42.805,6.029,CST-1368DR,4866,5879,12897,0.765,551
2022-03-05T01:05:47,42.805,6.029,CST-1368DR,4866,5876,12889,0.768,551
2022-03-05T01:08:49,42.805,6.029,CST-1368DR,4866,5880,12897,0.765,551
2022-03-05T01:11:50,42.805,6.029,CST-1368DR,4866,5877,12891,0.767,551
2022-03-05T01:14:52,42.805,6.029,CST-1368DR,4866,5877,12892,0.767,551
2022-03-05T01:17:53,42.805,6.029,CST-1368DR,4866,5886,12911,0.761,551
2022-03-05T01:20:55,42.805,6.029,CST-1368DR,4866,5886,12911,0.761,551
2022-03-05T01:23:57,42.805,6.029,CST-1368DR,4866,5881,12900,0.764,551
2022-03-05T01:26:58,42.805,6.029,CST-1368DR,4866,5881,12900,0.764,551
2022-03-05T01:30:00,42.805,6.029,CST-1368DR,4866,5881,12900,0.764,551
2022-03-05T01:33:01,42.805,6.029,CST-1368DR,4866,5881,12900,0.764,551
2022-03-05T01:36:03,42.805,6.029,CST-1368DR,4866,5880,12898,0.765,551
2022-03-05T01:39:04,42.805,6.029,CST-1368DR,4866,5880,12898,0.765,551
2022-03-05T01:42:06,42.805,6.029,CST-1368DR,4866,5877,12892,0.767,551
2022-03-05T01:45:08,42.805,6.029,CST-1368DR,4866,5878,12894,0.766,551
2022-03-05T01:48:09,42.805,6.029,CST-1368DR,4866,5876,12890,0.767,551
2022-03-05T01:51:11,42.805,6.029,CST-1368DR,4866,5882,12902,0.764,551
2022-03-05T01:54:12,42.805,6.029,CST-1368DR,4866,5880,12897,0.765,551
2022-03-05T01:57:14,42.805,6.029,CST-1368DR,4866,5882,12903,0.763,551
2022-03-05T02:00:16,42.805,6.029,CST-1368DR,4866,5883,12904,0.763,551
2022-03-05T02:03:17,42.805,6.029,CST-1368DR,4866,5881,12901,0.764,551
2022-03-05T02:06:19,42.805,6.029,CST-1368DR,4866,5878,12893,0.766,551
2022-03-05T02:09:20,42.805,6.029,CST-1368DR,4866,5873,12883,0.770,551
2022-03-05T02:12:22,42.805,6.029,CST-1368DR,4866,5884,12908,0.762,551
2022-03-05T02:15:23,42.805,6.029,CST-1368DR,4866,5881,12901,0.764,551
2022-03-05T02:18:25,42.805,6.029,CST-1368DR,4866,5882,12902,0.764,551
2022-03-05T02:21:27,42.805,6.029,CST-1368DR,4866,5877,12891,0.767,551
2022-03-05T02:24:28,42.805,6.029,CST-1368DR,4866,5883,12905,0.763,551
2022-03-05T02:27:30,42.805,6.029,CST-1368DR,4866,5884,12907,0.762,551
2022-03-05T02:30:31,42.805,6.029,CST-1368DR,4866,5885,12909,0.761,551
2022-03-05T02:33:33,42.805,6.029,CST-1368DR,4866,5879,12897,0.765,551
2022-03-05T02:36:35,42.805,6.029,CST-1368DR,4866,5881,12900,0.764,551
2022-03-05T02:39:36,42.805,6.029,CST-1368DR,4866,5884,12906,0.762,551
2022-03-05T02:42:38,42.805,6.029,CST-1368DR,4866,5878,12894,0.766,550
2022-03-05T02:45:39,42.805,6.029,CST-1368DR,4866,5883,12906,0.762,551
2022-03-05T02:48:41,42.805,6.029,CST-1368DR,4866,5881,12900,0.764,551
2022-03-05T02:51:42,42.805,6.029,CST-1368DR,4866,5884,12907,0.762,551
2022-03-05T02:54:44,42.805,6.029,CST-1368DR,4866,5878,12893,0.766,551
2022-03-05T02:57:46,42.805,6.029,CST-1368DR,4866,5880,12897,0.765,551
2022-03-05T03:00:47,42.805,6.029,CST-1368DR,4866,5880,12899,0.765,551
2022-03-05T03:03:49,42.805,6.029,CST-1368DR,4866,5884,12907,0.762,551
2022-03-05T03:06:50,42.805,6.029,CST-1368DR,4866,5879,12897,0.765,551
2022-03-05T03:09:52,42.805,6.029,CST-1368DR,4866,5883,12904,0.763,551
2022-03-05T03:12:53,42.805,6.029,CST-1368DR,4866,5881,12901,0.764,551
2022-03-05T03:15:55,42.805,6.029,CST-1368DR,4866,5881,12900,0.764,551
2022-03-05T03:18:57,42.805,6.029,CST-1368DR,4866,5883,12905,0.763,551
2022-03-05T03:21:58,42.805,6.029,CST-1368DR,4866,5884,12907,0.762,551
2022-03-05T03:25:00,42.805,6.029,CST-1368DR,4866,5882,12902,0.764,551
2022-03-05T03:28:01,42.805,6.029,CST-1368DR,4866,5886,12911,0.761,551
2022-03-05T03:31:03,42.805,6.029,CST-1368DR,4866,5880,12897,0.765,551
2022-03-05T03:34:05,42.805,6.029,CST-1368DR,4866,5883,12905,0.763,551
2022-03-05T03:37:06,42.805,6.029,CST-1368DR,4866,5882,12902,0.764,551
2022-03-05T03:40:08,42.805,6.029,CST-1368DR,4866,5880,12898,0.765,551
2022-03-05T03:43:09,42.805,6.029,CST-1368DR,4866,5881,12901,0.764,551
2022-03-05T03:46:11,42.805,6.029,CST-1368DR,4866,5885,12909,0.761,551
2022-03-05T03:49:12,42.805,6.029,CST-1368DR,4866,5875,12887,0.768,551
2022-03-05T03:52:14,42.805,6.029,CST-1368DR,4866,5878,12895,0.766,551
2022-03-05T03:55:16,42.805,6.029,CST-1368DR,4866,5880,12898,0.765,551
2022-03-05T03:58:17,42.805,6.029,CST-1368DR,4866,5879,12896,0.766,551
2022-03-05T04:01:19,42.805,6.029,CST-1368DR,4865,5882,12904,0.763,551
2022-03-05T04:04:20,42.805,6.029,CST-1368DR,4866,5881,12900,0.764,551
2022-03-05T04:07:22,42.805,6.029,CST-1368DR,4866,5880,12898,0.765,551
2022-03-05T04:10:23,42.805,6.029,CST-1368DR,4866,5881,12900,0.764,551
2022-03-05T04:13:25,42.805,6.029,CST-1368DR,4866,5881,12901,0.764,551
2022-03-05T04:16:27,42.805,6.029,CST-1368DR,4866,5880,12898,0.765,551
2022-03-05T04:19:28,42.805,6.029,CST-1368DR,4866,5881,12901,0.764,551
2022-03-05T04:22:30,42.805,6.029,CST-1368DR,4865,5881,12902,0.764,551
2022-03-05T04:25:31,42.805,6.029,CST-1368DR,4866,5877,12891,0.767,551
2022-03-05T04:28:33,42.805,6.029,CST-1368DR,4865,5883,12906,0.762,551
2022-03-05T04:31:35,42.805,6.029,CST-1368DR,4865,5878,12897,0.765,551
2022-03-05T04:34:36,42.805,6.029,CST-1368DR,4865,5880,12902,0.764,551
2022-03-05T04:37:38,42.805,6.029,CST-1368DR,4866,5881,12901,0.764,551
2022-03-05T04:40:39,42.805,6.029,CST-1368DR,4866,5881,12901,0.764,551
2022-03-05T04:43:41,42.805,6.029,CST-1368DR,4865,5880,12902,0.764,551
2022-03-05T04:46:42,42.805,6.029,CST-1368DR,4866,5880,12899,0.765,551
2022-03-05T04:49:44,42.805,6.029,CST-1368DR,4865,5880,12900,0.764,551
2022-03-05T04:52:46,42.805,6.029,CST-1368DR,4865,5879,12899,0.765,551
2022-03-05T04:55:47,42.805,6.029,CST-1368DR,4865,5881,12903,0.763,551
2022-03-05T04:58:49,42.805,6.029,CST-1368DR,4865,5879,12899,0.765,551
2022-03-05T05:01:50,42.805,6.029,CST-1368DR,4866,5880,12898,0.765,551
2022-03-05T05:04:52,42.805,6.029,CST-1368DR,4865,5881,12903,0.763,551
2022-03-05T05:07:54,42.805,6.029,CST-1368DR,4865,5877,12895,0.766,550
2022-03-05T05:10:55,42.805,6.029,CST-1368DR,4866,5884,12906,0.762,551
2022-03-05T05:13:57,42.805,6.029,CST-1368DR,4865,5880,12902,0.764,551
2022-03-05T05:16:58,42.805,6.029,CST-1368DR,4865,5879,12898,0.765,551
2022-03-05T05:20:00,42.805,6.029,CST-1368DR,4865,5882,12906,0.762,551
2022-03-05T05:23:01,42.805,6.029,CST-1368DR,4865,5879,12899,0.765,551
2022-03-05T05:26:03,42.805,6.029,CST-1368DR,4866,5881,12901,0.764,551
2022-03-05T05:29:05,42.805,6.029,CST-1368DR,4865,5877,12893,0.766,551
2022-03-05T05:32:06,42.805,6.029,CST-1368DR,4865,5879,12899,0.765,551
2022-03-05T05:35:08,42.805,6.029,CST-1368DR,4865,5880,12902,0.764,551
2022-03-05T05:38:09,42.805,6.029,CST-1368DR,4865,5878,12897,0.765,551
2022-03-05T05:41:11,42.805,6.029,CST-1368DR,4865,5879,12898,0.765,551
2022-03-05T05:44:13,42.805,6.029,CST-1368DR,4865,5880,12900,0.764,551
2022-03-05T05:47:14,42.805,6.029,CST-1368DR,4866,5881,12901,0.764,551
2022-03-05T05:50:16,42.805,6.029,CST-1368DR,4865,5879,12898,0.765,551
2022-03-05T05:53:17,42.805,6.029,CST-1368DR,4865,5883,12906,0.762,551
2022-03-05T05:56:19,42.805,6.029,CST-1368DR,4865,5886,12914,0.760,551
2022-03-05T05:59:20,42.805,6.029,CST-1368DR,4865,5882,12904,0.763,551
2022-03-05T06:02:22,42.805,6.029,CST-1368DR,4865,5878,12897,0.765,551
2022-03-05T06:05:24,42.805,6.029,CST-1368DR,4865,5879,12899,0.765,551
2022-03-05T06:08:25,42.805,6.029,CST-1368DR,4865,5876,12893,0.766,551
2022-03-05T06:11:27,42.805,6.029,CST-1368DR,4865,5881,12903,0.763,551
2022-03-05T06:14:28,42.805,6.029,CST-1368DR,4865,5877,12893,0.766,551
2022-03-05T06:17:30,42.805,6.029,CST-1368DR,4865,5875,12889,0.768,551
2022-03-05T06:20:31,42.805,6.029,CST-1368DR,4865,5873,12885,0.769,551
2022-03-05T06:23:33,42.805,6.029,CST-1368DR,4865,5874,12888,0.768,551
2022-03-05T06:26:35,42.805,6.029,CST-1368DR,4865,5873,12886,0.769,551
2022-03-05T06:29:36,42.805,6.029,CST-1368DR,4866,5878,12894,0.766,551
2022-03-05T06:32:38,42.805,6.029,CST-1368DR,4865,5877,12893,0.766,551
2022-03-05T06:35:39,42.805,6.029,CST-1368DR,4865,5877,12893,0.766,551
2022-03-05T06:38:41,42.805,6.029,CST-1368DR,4865,5873,12886,0.769,551
2022-03-05T06:41:43,42.805,6.029,CST-1368DR,4865,5880,12902,0.764,551
2022-03-05T06:44:44,42.805,6.029,CST-1368DR,4865,5877,12894,0.766,551
2022-03-05T06:47:46,42.805,6.029,CST-1368DR,4865,5875,12890,0.767,551
2022-03-05T06:50:47,42.805,6.029,CST-1368DR,4865,5878,12897,0.765,551
2022-03-05T06:53:49,42.805,6.029,CST-1368DR,4865,5875,12890,0.767,551
2022-03-05T06:56:50,42.805,6.029,CST-1368DR,4865,5872,12884,0.769,551
2022-03-05T06:59:52,42.805,6.029,CST-1368DR,4865,5876,12892,0.767,551
2022-03-05T07:02:54,42.805,6.029,CST-1368DR,4865,5878,12897,0.765,551
2022-03-05T07:05:55,42.805,6.029,CST-1368DR,4865,5877,12895,0.766,551
2022-03-05T07:08:57,42.805,6.029,CST-1368DR,4865,5875,12889,0.768,551
2022-03-05T07:11:58,42.805,6.029,CST-1368DR,4865,5872,12883,0.770,551
2022-03-05T07:15:00,42.805,6.029,CST-1368DR,4865,5877,12893,0.766,551
2022-03-05T07:18:01,42.805,6.029,CST-1368DR,4865,5875,12889,0.768,551
2022-03-05T07:21:03,42.805,6.029,CST-1368DR,4865,5873,12886,0.769,551
2022-03-05T07:24:05,42.805,6.029,CST-1368DR,4865,5876,12892,0.767,551
2022-03-05T07:27:06,42.805,6.029,CST-1368DR,4865,5876,12892,0.767,551
2022-03-05T07:30:08,42.805,6.029,CST-1368DR,4865,5873,12885,0.769,551
2022-03-05T07:33:09,42.805,6.029,CST-1368DR,4865,5875,12889,0.768,551
2022-03-05T07:36:11,42.805,6.029,CST-1368DR,4865,5873,12885,0.769,551
2022-03-05T07:39:13,42.805,6.029,CST-1368DR,4865,5873,12885,0.769,551
2022-03-05T07:42:14,42.805,6.029,CST-1368DR,4865,5877,12893,0.766,551
2022-03-05T07:45:16,42.805,6.029,CST-1368DR,4865,5874,12888,0.768,551
2022-03-05T07:48:17,42.805,6.029,CST-1368DR,4865,5873,12886,0.769,551
2022-03-05T07:51:19,42.805,6.029,CST-1368DR,4865,5873,12886,0.769,551
2022-03-05T07:54:20,42.805,6.029,CST-1368DR,4865,5873,12886,0.769,551
2022-03-05T07:57:22,42.805,6.029,CST-1368DR,4865,5872,12884,0.769,551
2022-03-05T08:00:24,42.805,6.029,CST-1368DR,4865,5876,12891,0.767,551
2022-03-05T08:03:25,42.805,6.029,CST-1368DR,4865,5877,12893,0.766,551
2022-03-05T08:06:27,42.805,6.029,CST-1368DR,4865,5875,12889,0.768,551
2022-03-05T08:09:28,42.805,6.029,CST-1368DR,4865,5874,12888,0.768,551
2022-03-05T08:12:30,42.805,6.029,CST-1368DR,4865,5876,12891,0.767,551
2022-03-05T08:15:32,42.805,6.029,CST-1368DR,4865,5872,12883,0.770,551
2022-03-05T08:18:33,42.805,6.029,CST-1368DR,4865,5869,12877,0.771,551
2022-03-05T08:21:35,42.805,6.029,CST-1368DR,4865,5876,12893,0.766,551
2022-03-05T08:24:36,42.805,6.029,CST-1368DR,4865,5874,12888,0.768,551
2022-03-05T08:27:38,42.805,6.029,CST-1368DR,4865,5873,12885,0.769,551
2022-03-05T08:30:39,42.805,6.029,CST-1368DR,4865,5874,12888,0.768,551
2022-03-05T08:33:41,42.805,6.029,CST-1368DR,4865,5883,12907,0.762,551
2022-03-05T08:36:43,42.805,6.029,CST-1368DR,4865,5877,12894,0.766,551
2022-03-05T08:39:44,42.805,6.029,CST-1368DR,4865,5878,12897,0.765,551
2022-03-05T08:42:46,42.805,6.029,CST-1368DR,4865,5873,12886,0.769,551
2022-03-05T08:45:47,42.805,6.029,CST-1368DR,4865,5873,12885,0.769,551
2022-03-05T08:48:49,42.805,6.029,CST-1368DR,4865,5872,12884,0.769,551
2022-03-05T08:51:51,42.805,6.029,CST-1368DR,4865,5873,12886,0.769,551
2022-03-05T08:54:52,42.805,6.029,CST-1368DR,4865,5876,12892,0.767,551
2022-03-05T08:57:54,42.805,6.029,CST-1368DR,4865,5875,12890,0.767,551
2022-03-05T09:00:55,42.805,6.029,CST-1368DR,4865,5871,12880,0.770,551
2022-03-05T09:03:57,42.805,6.029,CST-1368DR,4865,5874,12888,0.768,551
2022-03-05T09:06:58,42.805,6.029,CST-1368DR,4865,5874,12887,0.768,551
2022-03-05T09:10:00,42.805,6.029,CST-1368DR,4865,5870,12879,0.771,551
2022-03-05T09:13:02,42.805,6.029,CST-1368DR,4865,5875,12890,0.767,551
2022-03-05T09:16:03,42.805,6.029,CST-1368DR,4865,5873,12885,0.769,551
2022-03-05T09:19:05,42.805,6.029,CST-1368DR,4865,5868,12875,0.772,551
2022-03-05T09:22:06,42.805,6.029,CST-1368DR,4865,5874,12888,0.768,551
2022-03-05T09:25:08,42.805,6.029,CST-1368DR,4865,5872,12882,0.770,551
2022-03-05T09:28:09,42.805,6.029,CST-1368DR,4865,5874,12888,0.768,551
2022-03-05T09:31:11,42.805,6.029,CST-1368DR,4865,5869,12876,0.772,551
2022-03-05T09:34:13,42.805,6.029,CST-1368DR,4865,5873,12886,0.769,551
2022-03-05T09:37:14,42.805,6.029,CST-1368DR,4865,5875,12890,0.767,551
2022-03-05T09:40:16,42.805,6.029,CST-1368DR,4865,5871,12881,0.770,551
2022-03-05T09:43:17,42.805,6.029,CST-1368DR,4865,5874,12887,0.768,551
2022-03-05T09:46:19,42.805,6.029,CST-1368DR,4865,5872,12882,0.770,551
2022-03-05T09:49:21,42.805,6.029,CST-1368DR,4865,5871,12881,0.770,551
2022-03-05T09:52:22,42.805,6.029,CST-1368DR,4865,5871,12882,0.770,551
2022-03-05T09:55:24,42.805,6.029,CST-1368DR,4865,5872,12884,0.769,551
2022-03-05T09:58:25,42.805,6.029,CST-1368DR,4865,5871,12881,0.770,551
2022-03-05T10:01:27,42.805,6.029,CST-1368DR,4865,5874,12888,0.768,551
2022-03-05T10:04:28,42.805,6.029,CST-1368DR,4865,5873,12886,0.769,551
2022-03-05T10:07:30,42.805,6.029,CST-1368DR,4865,5875,12889,0.768,551
2022-03-05T10:10:32,42.805,6.029,CST-1368DR,4865,5874,12887,0.768,551
2022-03-05T10:13:33,42.805,6.029,CST-1368DR,4865,5869,12877,0.771,551
2022-03-05T10:16:35,42.805,6.029,CST-1368DR,4865,5872,12884,0.769,551
2022-03-05T10:19:36,42.805,6.029,CST-1368DR,4865,5872,12883,0.770,551
2022-03-05T10:22:38,42.805,6.029,CST-1368DR,4865,5870,12878,0.771,551
2022-03-05T10:25:39,42.805,6.029,CST-1368DR,4865,5871,12882,0.770,551
2022-03-05T10:28:41,42.805,6.029,CST-1368DR,4865,5871,12881,0.770,551
2022-03-05T10:31:43,42.805,6.029,CST-1368DR,4865,5875,12890,0.767,551
2022-03-05T10:34:44,42.805,6.029,CST-1368DR,4865,5875,12889,0.768,551
2022-03-05T10:37:46,42.805,6.029,CST-1368DR,4865,5867,12872,0.773,551
2022-03-05T10:40:47,42.805,6.029,CST-1368DR,4865,5868,12875,0.772,551
2022-03-05T10:43:49,42.805,6.029,CST-1368DR,4865,5871,12881,0.770,551
2022-03-05T10:46:51,42.805,6.029,CST-1368DR,4865,5870,12878,0.771,551
2022-03-05T10:49:52,42.805,6.029,CST-1368DR,4865,5869,12876,0.772,551
2022-03-05T10:52:54,42.805,6.029,CST-1368DR,4865,5870,12880,0.770,551
2022-03-05T10:55:55,42.805,6.029,CST-1368DR,4865,5867,12873,0.773,551
2022-03-05T10:58:57,42.805,6.029,CST-1368DR,4865,5870,12879,0.771,551
2022-03-05T11:01:58,42.805,6.029,CST-1368DR,4865,5872,12884,0.769,551
2022-03-05T11:05:00,42.805,6.029,CST-1368DR,4865,5872,12882,0.770,551
2022-03-05T11:08:02,42.805,6.029,CST-1368DR,4865,5870,12878,0.771,551
2022-03-05T11:11:03,42.805,6.029,CST-1368DR,4865,5867,12873,0.773,551
2022-03-05T11:14:05,42.805,6.029,CST-1368DR,4865,5863,12863,0.776,551
2022-03-05T11:17:06,42.805,6.029,CST-1368DR,4865,5872,12882,0.770,551
2022-03-05T11:20:08,42.805,6.029,CST-1368DR,4865,5867,12872,0.773,551
2022-03-05T11:23:10,42.805,6.029,CST-1368DR,4865,5866,12870,0.774,551
2022-03-05T11:26:11,42.805,6.029,CST-1368DR,4865,5861,12858,0.777,551
2022-03-05T11:29:13,42.805,6.029,CST-1368DR,4865,5867,12873,0.773,551
2022-03-05T11:32:14,42.805,6.029,CST-1368DR,4865,5871,12881,0.770,550
2022-03-05T11:35:16,42.805,6.029,CST-1368DR,4865,5866,12869,0.774,551
2022-03-05T11:38:17,42.805,6.029,CST-1368DR,4865,5860,12856,0.778,551
2022-03-05T11:41:19,42.805,6.029,CST-1368DR,4865,5864,12866,0.775,551
2022-03-05T11:44:21,42.805,6.029,CST-1368DR,4865,5866,12870,0.774,551
2022-03-05T11:47:22,42.805,6.029,CST-1368DR,4865,5870,12879,0.771,551
2022-03-05T11:50:24,42.805,6.029,CST-1368DR,4865,5868,12874,0.772,551
2022-03-05T11:53:25,42.805,6.029,CST-1368DR,4865,5862,12862,0.776,551
2022-03-05T11:56:27,42.805,6.029,CST-1368DR,4865,5867,12872,0.773,551
2022-03-05T11:59:28,42.805,6.029,CST-1368DR,4865,5867,12871,0.773,551
2022-03-05T12:02:30,42.805,6.029,CST-1368DR,4865,5871,12881,0.770,551
2022-03-05T12:05:32,42.805,6.029,CST-1368DR,4865,5866,12871,0.773,551
2022-03-05T12:08:33,42.805,6.029,CST-1368DR,4865,5864,12865,0.775,551
2022-03-05T12:11:35,42.805,6.029,CST-1368DR,4865,5863,12863,0.776,551
2022-03-05T12:14:36,42.805,6.029,CST-1368DR,4865,5862,12860,0.777,551
2022-03-05T12:17:38,42.805,6.029,CST-1368DR,4865,5862,12862,0.776,551
2022-03-05T12:20:40,42.805,6.029,CST-1368DR,4865,5864,12866,0.775,551
2022-03-05T12:23:41,42.805,6.029,CST-1368DR,4865,5874,12888,0.768,551
2022-03-05T12:26:43,42.805,6.029,CST-1368DR,4865,5870,12880,0.770,551
2022-03-05T12:29:44,42.805,6.029,CST-1368DR,4865,5860,12858,0.777,551
2022-03-05T12:32:46,42.805,6.029,CST-1368DR,4865,5863,12864,0.775,551
2022-03-05T12:35:47,42.805,6.029,CST-1368DR,4865,5854,12844,0.782,551
2022-03-05T12:38:49,42.805,6.029,CST-1368DR,4865,5849,12832,0.785,551
2022-03-05T12:41:51,42.805,6.029,CST-1368DR,4865,5856,12847,0.781,551
2022-03-05T12:44:52,42.805,6.029,CST-1368DR,4865,5860,12857,0.778,551
2022-03-05T12:47:54,42.805,6.029,CST-1368DR,4865,5861,12860,0.777,551
2022-03-05T12:50:55,42.805,6.029,CST-1368DR,4865,5856,12848,0.780,551
2022-03-05T12:53:57,42.805,6.029,CST-1368DR,4865,5859,12854,0.779,551
2022-03-05T12:56:58,42.805,6.029,CST-1368DR,4865,5856,12848,0.780,551
2022-03-05T13:00:00,42.805,6.029,CST-1368DR,4865,5855,12847,0.781,551
2022-03-05T13:03:02,42.805,6.029,CST-1368DR,4865,5873,12886,0.769,551
2022-03-05T13:06:03,42.805,6.029,CST-1368DR,4865,5853,12842,0.782,551
2022-03-05T13:09:05,42.805,6.029,CST-1368DR,4865,5853,12841,0.783,551
2022-03-05T13:12:06,42.805,6.029,CST-1368DR,4865,5855,12845,0.781,551
2022-03-05T13:15:08,42.805,6.029,CST-1368DR,4865,5857,12850,0.780,551
2022-03-05T13:18:10,42.805,6.029,CST-1368DR,4865,5858,12853,0.779,551
2022-03-05T13:21:11,42.805,6.029,CST-1368DR,4865,5861,12858,0.777,551
2022-03-05T13:24:13,42.805,6.029,CST-1368DR,4865,5853,12842,0.782,551
2022-03-05T13:27:14,42.805,6.029,CST-1368DR,4865,5861,12860,0.777,551
2022-03-05T13:30:16,42.805,6.029,CST-1368DR,4865,5848,12830,0.786,551
2022-03-05T13:33:17,42.805,6.029,CST-1368DR,4865,5851,12836,0.784,551
2022-03-05T13:36:19,42.805,6.029,CST-1368DR,4865,5852,12840,0.783,551
2022-03-05T13:39:21,42.805,6.029,CST-1368DR,4865,5847,12828,0.787,551
2022-03-05T13:42:22,42.805,6.029,CST-1368DR,4865,5842,12817,0.790,551
2022-03-05T13:45:24,42.805,6.029,CST-1368DR,4865,5839,12810,0.792,551
2022-03-05T13:48:25,42.805,6.029,CST-1368DR,4865,5850,12834,0.785,551
2022-03-05T13:51:27,42.805,6.029,CST-1368DR,4865,5854,12845,0.781,551
2022-03-05T13:54:29,42.805,6.029,CST-1368DR,4865,5860,12857,0.778,551
2022-03-05T13:57:30,42.805,6.029,CST-1368DR,4865,5857,12851,0.779,551
2022-03-05T14:00:32,42.805,6.029,CST-1368DR,4865,5853,12841,0.783,551
2022-03-05T14:03:33,42.805,6.029,CST-1368DR,4865,5853,12841,0.783,551
2022-03-05T14:06:35,42.805,6.029,CST-1368DR,4865,5858,12852,0.779,551
2022-03-05T14:09:36,42.805,6.029,CST-1368DR,4865,5863,12863,0.776,551
2022-03-05T14:12:38,42.805,6.029,CST-1368DR,4865,5853,12842,0.782,551
2022-03-05T14:15:40,42.805,6.029,CST-1368DR,4865,5854,12843,0.782,551
2022-03-05T14:18:41,42.805,6.029,CST-1368DR,4865,5845,12823,0.788,551
2022-03-05T14:21:43,42.805,6.029,CST-1368DR,4865,5853,12842,0.782,551
2022-03-05T14:24:44,42.805,6.029,CST-1368DR,4865,5854,12845,0.781,551
2022-03-05T14:27:46,42.805,6.029,CST-1368DR,4865,5853,12841,0.783,551
2022-03-05T14:30:47,42.805,6.029,CST-1368DR,4865,5864,12866,0.775,551
2022-03-05T14:33:49,42.805,6.029,CST-1368DR,4865,5863,12863,0.776,551
2022-03-05T14:36:51,42.805,6.029,CST-1368DR,4865,5875,12890,0.767,551
2022-03-05T14:39:52,42.805,6.029,CST-1368DR,4865,5875,12890,0.767,551
2022-03-05T14:42:54,42.805,6.029,CST-1368DR,4865,5859,12855,0.778,551
2022-03-05T14:45:55,42.805,6.029,CST-1368DR,4865,5852,12839,0.783,551
2022-03-05T14:48:57,42.805,6.029,CST-1368DR,4865,5852,12839,0.783,551
2022-03-05T14:51:59,42.805,6.029,CST-1368DR,4865,5850,12835,0.784,551
2022-03-05T14:55:00,42.805,6.029,CST-1368DR,4865,5852,12840,0.783,551
2022-03-05T14:58:02,42.805,6.029,CST-1368DR,4865,5851,12836,0.784,551
2022-03-05T15:01:03,42.805,6.029,CST-1368DR,4865,5850,12836,0.784,551
2022-03-05T15:04:05,42.805,6.029,CST-1368DR,4865,5852,12840,0.783,551
2022-03-05T15:07:06,42.805,6.029,CST-1368DR,4865,5874,12888,0.768,551
2022-03-05T15:10:08,42.805,6.029,CST-1368DR,4865,5851,12836,0.784,551
2022-03-05T15:13:10,42.805,6.029,CST-1368DR,4865,5854,12844,0.782,551
2022-03-05T15:16:11,42.805,6.029,CST-1368DR,4865,5874,12887,0.768,551
2022-03-05T15:19:13,42.805,6.029,CST-1368DR,4865,5861,12858,0.777,551
2022-03-05T15:22:14,42.805,6.029,CST-1368DR,4865,5874,12888,0.768,551
2022-03-05T15:25:16,42.805,6.029,CST-1368DR,4865,5876,12892,0.767,551
2022-03-05T15:28:17,42.805,6.029,CST-1368DR,4865,5876,12893,0.766,551
2022-03-05T15:31:19,42.805,6.029,CST-1368DR,4865,5875,12889,0.768,551
2022-03-05T15:34:21,42.805,6.029,CST-1368DR,4865,5863,12864,0.775,551
2022-03-05T15:37:22,42.805,6.029,CST-1368DR,4865,5853,12841,0.783,551
2022-03-05T15:40:24,42.805,6.029,CST-1368DR,4865,5870,12879,0.771,551
2022-03-05T15:43:25,42.805,6.029,CST-1368DR,4865,5854,12843,0.782,551
2022-03-05T15:46:27,42.805,6.029,CST-1368DR,4864,5845,12827,0.787,551
2022-03-05T15:49:29,42.805,6.029,CST-1368DR,4865,5866,12870,0.774,551
2022-03-05T15:52:30,42.805,6.029,CST-1368DR,4865,5867,12871,0.773,551
2022-03-05T15:55:32,42.805,6.029,CST-1368DR,4865,5878,12896,0.766,551
2022-03-05T15:58:33,42.805,6.029,CST-1368DR,4865,5873,12885,0.769,551
2022-03-05T16:01:35,42.805,6.029,CST-1368DR,4865,5873,12885,0.769,551
2022-03-05T16:04:36,42.805,6.029,CST-1368DR,4865,5876,12891,0.767,551
2022-03-05T16:07:38,42.805,6.029,CST-1368DR,4865,5877,12893,0.766,551
2022-03-05T16:10:40,42.805,6.029,CST-1368DR,4864,5873,12889,0.768,551
2022-03-05T16:13:41,42.805,6.029,CST-1368DR,4865,5878,12896,0.766,551
2022-03-05T16:16:43,42.805,6.029,CST-1368DR,4864,5872,12885,0.769,551
2022-03-05T16:19:44,42.805,6.029,CST-1368DR,4864,5866,12872,0.773,551
2022-03-05T16:22:46,42.805,6.029,CST-1368DR,4865,5875,12889,0.768,551
2022-03-05T16:25:47,42.805,6.029,CST-1368DR,4864,5874,12889,0.768,551
2022-03-05T16:28:49,42.805,6.029,CST-1368DR,4864,5856,12850,0.780,551
2022-03-05T16:31:51,42.805,6.029,CST-1368DR,4864,5856,12851,0.779,551
2022-03-05T16:34:52,42.805,6.029,CST-1368DR,4865,5875,12889,0.768,551
2022-03-05T16:37:54,42.805,6.029,CST-1368DR,4864,5874,12890,0.767,551
2022-03-05T16:40:55,42.805,6.029,CST-1368DR,4865,5874,12887,0.768,551
2022-03-05T16:43:57,42.805,6.029,CST-1368DR,4865,5873,12886,0.769,551
2022-03-05T16:46:59,42.805,6.029,CST-1368DR,4865,5876,12893,0.766,551
2022-03-05T16:50:00,42.805,6.029,CST-1368DR,4865,5876,12892,0.767,551
2022-03-05T16:53:02,42.805,6.029,CST-1368DR,4865,5873,12885,0.769,551